Tracking 29892 objects as of 21-Nov-2024
HD Live streaming from Space Station
objects crossing your sky now

3CAT-5/B (TYVAK-0162)

Track 3CAT-5/B (TYVAK-0162) now!
10-day predictions


NORAD ID: 46293
Int'l Code: 2020-061X
Perigee: 489.3 km
Apogee: 493.7 km
Inclination: 97.3 °
Period: 94.3 minutes
Semi major axis: 6862 km
RCS: Unknown
Launch date: September 3, 2020
Source: Spain (SPN)
Launch site: FRENCH GUIANA (FRGUI)
Your satellite tracking list
Your tracking list is empty




NASA's NSSDC Master Catalog

Two Line Element Set (TLE):
1 46293U 20061X   24326.11908532  .00015408  00000-0  58088-3 0  9999
2 46293  97.3280  24.0411 0003228  37.9789 322.1678 15.27148250233029
Source of the keplerian elements: AFSPC